Year,Month,Day,Hour,Minute,Value (Times are PST for temperature in C)
2012,07,27,00,00,14.20
2012,07,27,00,01,14.20
2012,07,27,00,02,14.20
2012,07,27,00,03,14.20
2012,07,27,00,04,14.20
2012,07,27,00,05,14.20
2012,07,27,00,06,14.20
2012,07,27,00,07,14.20
2012,07,27,00,08,14.20
2012,07,27,00,09,14.20
2012,07,27,00,10,14.10
2012,07,27,00,11,14.10
2012,07,27,00,12,14.10
2012,07,27,00,13,14.10
2012,07,27,00,14,14.10
2012,07,27,00,15,14.10
2012,07,27,00,16,14.10
2012,07,27,00,17,14.10
2012,07,27,00,18,14.10
2012,07,27,00,19,14.10
2012,07,27,00,20,14.10
2012,07,27,00,21,14.10
2012,07,27,00,22,14.10
2012,07,27,00,23,14.10
2012,07,27,00,24,14.10
2012,07,27,00,25,14.10
2012,07,27,00,26,14.10
2012,07,27,00,27,14.10
2012,07,27,00,28,14.10
2012,07,27,00,29,14.10
2012,07,27,00,30,14.10
2012,07,27,00,31,14.10
2012,07,27,00,32,14.10
2012,07,27,00,33,14.10
2012,07,27,00,34,14.20
2012,07,27,00,35,14.20
2012,07,27,00,36,14.20
2012,07,27,00,37,14.20
2012,07,27,00,38,14.20
2012,07,27,00,39,14.20
2012,07,27,00,40,14.20
2012,07,27,00,41,14.30
2012,07,27,00,42,14.30
2012,07,27,00,43,14.30
2012,07,27,00,44,14.30
2012,07,27,00,45,14.30
2012,07,27,00,46,14.30
2012,07,27,00,47,14.30
2012,07,27,00,48,14.30
2012,07,27,00,49,14.30
2012,07,27,00,50,14.30
2012,07,27,00,51,14.30
2012,07,27,00,52,14.30
2012,07,27,00,53,14.30
2012,07,27,00,54,14.30
2012,07,27,00,55,14.30
2012,07,27,00,56,14.30
2012,07,27,00,57,14.30
2012,07,27,00,58,14.30
2012,07,27,00,59,14.20
2012,07,27,01,00,14.20
2012,07,27,01,01,14.20
2012,07,27,01,02,14.20
2012,07,27,01,03,14.20
2012,07,27,01,04,14.20
2012,07,27,01,05,14.20
2012,07,27,01,06,14.20
2012,07,27,01,07,14.20
2012,07,27,01,08,14.10
2012,07,27,01,09,14.10
2012,07,27,01,10,14.10
2012,07,27,01,11,14.10
2012,07,27,01,12,14.10
2012,07,27,01,13,14.00
2012,07,27,01,14,14.00
2012,07,27,01,15,14.00
2012,07,27,01,16,13.90
2012,07,27,01,17,13.90
2012,07,27,01,18,13.90
2012,07,27,01,19,13.90
2012,07,27,01,20,13.90
2012,07,27,01,21,13.80
2012,07,27,01,22,13.80
2012,07,27,01,23,13.80
2012,07,27,01,24,13.80
2012,07,27,01,25,13.80
2012,07,27,01,26,13.80
2012,07,27,01,27,13.70
2012,07,27,01,28,13.70
2012,07,27,01,29,13.70
2012,07,27,01,30,13.70
2012,07,27,01,31,13.70
2012,07,27,01,32,13.60
2012,07,27,01,33,13.60
2012,07,27,01,34,13.60
2012,07,27,01,35,13.60
2012,07,27,01,36,13.50
2012,07,27,01,37,13.50
2012,07,27,01,38,13.40
2012,07,27,01,39,13.30
2012,07,27,01,40,13.30
2012,07,27,01,41,13.20
2012,07,27,01,42,13.20
2012,07,27,01,43,13.20
2012,07,27,01,44,13.20
2012,07,27,01,45,13.10
2012,07,27,01,46,13.10
2012,07,27,01,47,13.10
2012,07,27,01,48,13.10
2012,07,27,01,49,13.10
2012,07,27,01,50,13.00
2012,07,27,01,51,13.00
2012,07,27,01,52,12.90
2012,07,27,01,53,12.90
2012,07,27,01,54,12.90
2012,07,27,01,55,12.90
2012,07,27,01,56,12.90
2012,07,27,01,57,12.80
2012,07,27,01,58,12.80
2012,07,27,01,59,12.80
2012,07,27,02,00,12.80
2012,07,27,02,01,12.70
2012,07,27,02,02,12.70
2012,07,27,02,03,12.70
2012,07,27,02,04,12.70
2012,07,27,02,05,12.60
2012,07,27,02,06,12.60
2012,07,27,02,07,12.60
2012,07,27,02,08,12.60
2012,07,27,02,09,12.60
2012,07,27,02,10,12.60
2012,07,27,02,11,12.50
2012,07,27,02,12,12.50
2012,07,27,02,13,12.50
2012,07,27,02,14,12.40
2012,07,27,02,15,12.40
2012,07,27,02,16,12.40
2012,07,27,02,17,12.40
2012,07,27,02,18,12.40
2012,07,27,02,19,12.40
2012,07,27,02,20,12.40
2012,07,27,02,21,12.40
2012,07,27,02,22,12.40
2012,07,27,02,23,12.40
2012,07,27,02,24,12.40
2012,07,27,02,25,12.40
2012,07,27,02,26,12.40
2012,07,27,02,27,12.40
2012,07,27,02,28,12.40
2012,07,27,02,29,12.40
2012,07,27,02,30,12.40
2012,07,27,02,31,12.40
2012,07,27,02,32,12.40
2012,07,27,02,33,12.50
2012,07,27,02,34,12.50
2012,07,27,02,35,12.50
2012,07,27,02,36,12.50
2012,07,27,02,37,12.50
2012,07,27,02,38,12.50
2012,07,27,02,39,12.50
2012,07,27,02,40,12.50
2012,07,27,02,41,12.50
2012,07,27,02,42,12.40
2012,07,27,02,43,12.40
2012,07,27,02,44,12.40
2012,07,27,02,45,12.40
2012,07,27,02,46,12.40
2012,07,27,02,47,12.40
2012,07,27,02,48,12.40
2012,07,27,02,49,12.40
2012,07,27,02,50,12.30
2012,07,27,02,51,12.30
2012,07,27,02,52,12.30
2012,07,27,02,53,12.30
2012,07,27,02,54,12.20
2012,07,27,02,55,12.20
2012,07,27,02,56,12.20
2012,07,27,02,57,12.20
2012,07,27,02,58,12.10
2012,07,27,02,59,12.10
2012,07,27,03,00,12.10
2012,07,27,03,01,12.00
2012,07,27,03,02,12.00
2012,07,27,03,03,12.00
2012,07,27,03,04,12.00
2012,07,27,03,05,11.90
2012,07,27,03,06,11.90
2012,07,27,03,07,11.90
2012,07,27,03,08,11.90
2012,07,27,03,09,11.90
2012,07,27,03,10,11.90
2012,07,27,03,11,11.90
2012,07,27,03,12,11.90
2012,07,27,03,13,11.80
2012,07,27,03,14,11.80
2012,07,27,03,15,11.80
2012,07,27,03,16,11.80
2012,07,27,03,17,11.80
2012,07,27,03,18,11.80
2012,07,27,03,19,11.80
2012,07,27,03,20,11.80
2012,07,27,03,21,11.80
2012,07,27,03,22,11.80
2012,07,27,03,23,11.80
2012,07,27,03,24,11.80
2012,07,27,03,25,11.80
2012,07,27,03,26,11.80
2012,07,27,03,27,11.80
2012,07,27,03,28,11.80
2012,07,27,03,29,11.80
2012,07,27,03,30,11.80
2012,07,27,03,31,11.80
2012,07,27,03,32,11.80
2012,07,27,03,33,11.80
2012,07,27,03,34,11.80
2012,07,27,03,35,11.80
2012,07,27,03,36,11.80
2012,07,27,03,37,11.80
2012,07,27,03,38,11.80
2012,07,27,03,39,11.80
2012,07,27,03,40,11.80
2012,07,27,03,41,11.80
2012,07,27,03,42,11.80
2012,07,27,03,43,11.80
2012,07,27,03,44,11.80
2012,07,27,03,45,11.80
2012,07,27,03,46,11.80
2012,07,27,03,47,11.70
2012,07,27,03,48,11.70
2012,07,27,03,49,11.70
2012,07,27,03,50,11.70
2012,07,27,03,51,11.70
2012,07,27,03,52,11.70
2012,07,27,03,53,11.70
2012,07,27,03,54,11.70
2012,07,27,03,55,11.70
2012,07,27,03,56,11.70
2012,07,27,03,57,11.70
2012,07,27,03,58,11.70
2012,07,27,03,59,11.70
2012,07,27,04,00,11.70
2012,07,27,04,01,11.70
2012,07,27,04,02,11.70
2012,07,27,04,03,11.70
2012,07,27,04,04,11.60
2012,07,27,04,05,11.60
2012,07,27,04,06,11.60
2012,07,27,04,07,11.60
2012,07,27,04,08,11.60
2012,07,27,04,09,11.60
2012,07,27,04,10,11.60
2012,07,27,04,11,11.60
2012,07,27,04,12,11.60
2012,07,27,04,13,11.60
2012,07,27,04,14,11.50
2012,07,27,04,15,11.50
2012,07,27,04,16,11.50
2012,07,27,04,17,11.50
2012,07,27,04,18,11.50
2012,07,27,04,19,11.50
2012,07,27,04,20,11.50
2012,07,27,04,21,11.50
2012,07,27,04,22,11.50
2012,07,27,04,23,11.50
2012,07,27,04,24,11.50
2012,07,27,04,25,11.60
2012,07,27,04,26,11.60
2012,07,27,04,27,11.60
2012,07,27,04,28,11.60
2012,07,27,04,29,11.60
2012,07,27,04,30,11.60
2012,07,27,04,31,11.60
2012,07,27,04,32,11.60
2012,07,27,04,33,11.60
2012,07,27,04,34,11.60
2012,07,27,04,35,11.60
2012,07,27,04,36,11.60
2012,07,27,04,37,11.60
2012,07,27,04,38,11.60
2012,07,27,04,39,11.60
2012,07,27,04,40,11.60
2012,07,27,04,41,11.60
2012,07,27,04,42,11.60
2012,07,27,04,43,11.60
2012,07,27,04,44,11.60
2012,07,27,04,45,11.60
2012,07,27,04,46,11.60
2012,07,27,04,47,11.60
2012,07,27,04,48,11.60
2012,07,27,04,49,11.70
2012,07,27,04,50,11.70
2012,07,27,04,51,11.70
2012,07,27,04,52,11.70
2012,07,27,04,53,11.70
2012,07,27,04,54,11.70
2012,07,27,04,55,11.70
2012,07,27,04,56,11.70
2012,07,27,04,57,11.70
2012,07,27,04,58,11.70
2012,07,27,04,59,11.70
2012,07,27,05,00,11.70
2012,07,27,05,01,11.70
2012,07,27,05,02,11.80
2012,07,27,05,03,11.80
2012,07,27,05,04,11.80
2012,07,27,05,05,11.80
2012,07,27,05,06,11.80
2012,07,27,05,07,11.80
2012,07,27,05,08,11.80
2012,07,27,05,09,11.80
2012,07,27,05,10,11.80
2012,07,27,05,11,11.80
2012,07,27,05,12,11.80
2012,07,27,05,13,11.80
2012,07,27,05,14,11.80
2012,07,27,05,15,11.80
2012,07,27,05,16,11.80
2012,07,27,05,17,11.80
2012,07,27,05,18,11.80
2012,07,27,05,19,11.80
2012,07,27,05,20,11.80
2012,07,27,05,21,11.80
2012,07,27,05,22,11.80
2012,07,27,05,23,11.80
2012,07,27,05,24,11.80
2012,07,27,05,25,11.80
2012,07,27,05,26,11.80
2012,07,27,05,27,11.80
2012,07,27,05,28,11.80
2012,07,27,05,29,11.80
2012,07,27,05,30,11.80
2012,07,27,05,31,11.80
2012,07,27,05,32,11.80
2012,07,27,05,33,11.80
2012,07,27,05,34,11.80
2012,07,27,05,35,11.80
2012,07,27,05,36,11.80
2012,07,27,05,37,11.80
2012,07,27,05,38,11.80
2012,07,27,05,39,11.80
2012,07,27,05,40,11.80
2012,07,27,05,41,11.80
2012,07,27,05,42,11.80
2012,07,27,05,43,11.80
2012,07,27,05,44,11.80
2012,07,27,05,45,11.80
2012,07,27,05,46,11.80
2012,07,27,05,47,11.80
2012,07,27,05,48,11.80
2012,07,27,05,49,11.80
2012,07,27,05,50,11.80
2012,07,27,05,51,11.80
2012,07,27,05,52,11.80
2012,07,27,05,53,11.80
2012,07,27,05,54,11.80
2012,07,27,05,55,11.80
2012,07,27,05,56,11.80
2012,07,27,05,57,11.80
2012,07,27,05,58,11.80
2012,07,27,05,59,11.80
2012,07,27,06,00,11.80
2012,07,27,06,01,11.80
2012,07,27,06,02,11.80
2012,07,27,06,03,11.80
2012,07,27,06,04,11.80
2012,07,27,06,05,11.80
2012,07,27,06,06,11.80
2012,07,27,06,07,11.80
2012,07,27,06,08,11.80
2012,07,27,06,09,11.80
2012,07,27,06,10,11.90
2012,07,27,06,11,11.90
2012,07,27,06,12,11.90
2012,07,27,06,13,11.90
2012,07,27,06,14,11.90
2012,07,27,06,15,11.90
2012,07,27,06,16,11.90
2012,07,27,06,17,11.90
2012,07,27,06,18,11.90
2012,07,27,06,19,11.90
2012,07,27,06,20,11.90
2012,07,27,06,21,11.90
2012,07,27,06,22,12.00
2012,07,27,06,23,12.00
2012,07,27,06,24,12.00
2012,07,27,06,25,12.00
2012,07,27,06,26,12.00
2012,07,27,06,27,12.00
2012,07,27,06,28,12.00
2012,07,27,06,29,12.10
2012,07,27,06,30,12.10
2012,07,27,06,31,12.10
2012,07,27,06,32,12.10
2012,07,27,06,33,12.10
2012,07,27,06,34,12.10
2012,07,27,06,35,12.10
2012,07,27,06,36,12.20
2012,07,27,06,37,12.20
2012,07,27,06,38,12.20
2012,07,27,06,39,12.20
2012,07,27,06,40,12.20
2012,07,27,06,41,12.30
2012,07,27,06,42,12.30
2012,07,27,06,43,12.30
2012,07,27,06,44,12.30
2012,07,27,06,45,12.30
2012,07,27,06,46,12.40
2012,07,27,06,47,12.40
2012,07,27,06,48,12.40
2012,07,27,06,49,12.40
2012,07,27,06,50,12.40
2012,07,27,06,51,12.50
2012,07,27,06,52,12.50
2012,07,27,06,53,12.50
2012,07,27,06,54,12.60
2012,07,27,06,55,12.60
2012,07,27,06,56,12.60
2012,07,27,06,57,12.60
2012,07,27,06,58,12.60
2012,07,27,06,59,12.70
2012,07,27,07,00,12.70
2012,07,27,07,01,12.70
2012,07,27,07,02,12.70
2012,07,27,07,03,12.80
2012,07,27,07,04,12.80
2012,07,27,07,05,12.80
2012,07,27,07,06,12.80
2012,07,27,07,07,12.90
2012,07,27,07,08,12.90
2012,07,27,07,09,12.90
2012,07,27,07,10,12.90
2012,07,27,07,11,13.00
2012,07,27,07,12,13.00
2012,07,27,07,13,13.00
2012,07,27,07,14,13.10
2012,07,27,07,15,13.10
2012,07,27,07,16,13.10
2012,07,27,07,17,13.20
2012,07,27,07,18,13.20
2012,07,27,07,19,13.20
2012,07,27,07,20,13.20
2012,07,27,07,21,13.20
2012,07,27,07,22,13.20
2012,07,27,07,23,13.20
2012,07,27,07,24,13.30
2012,07,27,07,25,13.30
2012,07,27,07,26,13.30
2012,07,27,07,27,13.30
2012,07,27,07,28,13.30
2012,07,27,07,29,13.30
2012,07,27,07,30,13.30
2012,07,27,07,31,13.30
2012,07,27,07,32,13.30
2012,07,27,07,33,13.30
2012,07,27,07,34,13.30
2012,07,27,07,35,13.40
2012,07,27,07,36,13.40
2012,07,27,07,37,13.40
2012,07,27,07,38,13.40
2012,07,27,07,39,13.40
2012,07,27,07,40,13.40
2012,07,27,07,41,13.40
2012,07,27,07,42,13.40
2012,07,27,07,43,13.40
2012,07,27,07,44,13.40
2012,07,27,07,45,13.40
2012,07,27,07,46,13.40
2012,07,27,07,47,13.40
2012,07,27,07,48,13.40
2012,07,27,07,49,13.40
2012,07,27,07,50,13.40
2012,07,27,07,51,13.40
2012,07,27,07,52,13.40
2012,07,27,07,53,13.40
2012,07,27,07,54,13.40
2012,07,27,07,55,13.40
2012,07,27,07,56,13.40
2012,07,27,07,57,13.40
2012,07,27,07,58,13.40
2012,07,27,07,59,13.40
2012,07,27,08,00,13.40
2012,07,27,08,01,13.40
2012,07,27,08,02,13.40
2012,07,27,08,03,13.40
2012,07,27,08,04,13.40
2012,07,27,08,05,13.40
2012,07,27,08,06,13.40
2012,07,27,08,07,13.40
2012,07,27,08,08,13.40
2012,07,27,08,09,13.50
2012,07,27,08,10,13.50
2012,07,27,08,11,13.50
2012,07,27,08,12,13.50
2012,07,27,08,13,13.50
2012,07,27,08,14,13.40
2012,07,27,08,15,13.40
2012,07,27,08,16,13.40
2012,07,27,08,17,13.40
2012,07,27,08,18,13.30
2012,07,27,08,19,13.30
2012,07,27,08,20,13.30
2012,07,27,08,21,13.30
2012,07,27,08,22,13.30
2012,07,27,08,23,13.30
2012,07,27,08,24,13.30
2012,07,27,08,25,13.30
2012,07,27,08,26,13.20
2012,07,27,08,27,13.20
2012,07,27,08,28,13.20
2012,07,27,08,29,13.20
2012,07,27,08,30,13.20
2012,07,27,08,31,13.20
2012,07,27,08,32,13.20
2012,07,27,08,33,13.20
2012,07,27,08,34,13.20
2012,07,27,08,35,13.20
2012,07,27,08,36,13.20
2012,07,27,08,37,13.30
2012,07,27,08,38,13.30
2012,07,27,08,39,13.30
2012,07,27,08,40,13.30
2012,07,27,08,41,13.30
2012,07,27,08,42,13.30
2012,07,27,08,43,13.30
2012,07,27,08,44,13.30
2012,07,27,08,45,13.30
2012,07,27,08,46,13.30
2012,07,27,08,47,13.30
2012,07,27,08,48,13.30
2012,07,27,08,49,13.30
2012,07,27,08,50,13.20
2012,07,27,08,51,13.20
2012,07,27,08,52,13.20
2012,07,27,08,53,13.30
2012,07,27,08,54,13.30
2012,07,27,08,55,13.30
2012,07,27,08,56,13.30
2012,07,27,08,57,13.30
2012,07,27,08,58,13.30
2012,07,27,08,59,13.30
2012,07,27,09,00,13.30
2012,07,27,09,01,13.30
2012,07,27,09,02,13.30
2012,07,27,09,03,13.30
2012,07,27,09,04,13.30
2012,07,27,09,05,13.30
2012,07,27,09,06,13.30
2012,07,27,09,07,13.30
2012,07,27,09,08,13.30
2012,07,27,09,09,13.30
2012,07,27,09,10,13.30
2012,07,27,09,11,13.30
2012,07,27,09,12,13.30
2012,07,27,09,13,13.30
2012,07,27,09,14,13.30
2012,07,27,09,15,13.30
2012,07,27,09,16,13.30
2012,07,27,09,17,13.40
2012,07,27,09,18,13.40
2012,07,27,09,19,13.50
2012,07,27,09,20,13.50
2012,07,27,09,21,13.60
2012,07,27,09,22,13.60
2012,07,27,09,23,13.60
2012,07,27,09,24,13.70
2012,07,27,09,25,13.70
2012,07,27,09,26,13.70
2012,07,27,09,27,13.70
2012,07,27,09,28,13.70
2012,07,27,09,29,13.70
2012,07,27,09,30,13.80
2012,07,27,09,31,13.80
2012,07,27,09,32,13.80
2012,07,27,09,33,13.80
2012,07,27,09,34,13.80
2012,07,27,09,35,13.80
2012,07,27,09,36,13.90
2012,07,27,09,37,13.90
2012,07,27,09,38,14.00
2012,07,27,09,39,14.00
2012,07,27,09,40,14.00
2012,07,27,09,41,14.00
2012,07,27,09,42,14.10
2012,07,27,09,43,14.00
2012,07,27,09,44,14.00
2012,07,27,09,45,14.00
2012,07,27,09,46,14.00
2012,07,27,09,47,14.10
2012,07,27,09,48,14.10
2012,07,27,09,49,14.10
2012,07,27,09,50,14.20
2012,07,27,09,51,14.20
2012,07,27,09,52,14.30
2012,07,27,09,53,14.30
2012,07,27,09,54,14.30
2012,07,27,09,55,14.40
2012,07,27,09,56,14.40
2012,07,27,09,57,14.40
2012,07,27,09,58,14.40
2012,07,27,09,59,14.40
2012,07,27,10,00,14.30
2012,07,27,10,01,14.30
2012,07,27,10,02,14.40
2012,07,27,10,03,14.40
2012,07,27,10,04,14.40
2012,07,27,10,05,14.40
2012,07,27,10,06,14.40
2012,07,27,10,07,14.40
2012,07,27,10,08,14.40
2012,07,27,10,09,14.40
2012,07,27,10,10,14.40
2012,07,27,10,11,14.40
2012,07,27,10,12,14.40
2012,07,27,10,13,14.40
2012,07,27,10,14,14.50
2012,07,27,10,15,14.50
2012,07,27,10,16,14.60
2012,07,27,10,17,14.60
2012,07,27,10,18,14.60
2012,07,27,10,19,14.50
2012,07,27,10,20,14.50
2012,07,27,10,21,14.50
2012,07,27,10,22,14.50
2012,07,27,10,23,14.50
2012,07,27,10,24,14.50
2012,07,27,10,25,14.60
2012,07,27,10,26,14.60
2012,07,27,10,27,14.60
2012,07,27,10,28,14.60
2012,07,27,10,29,14.70
2012,07,27,10,30,14.70
2012,07,27,10,31,14.70
2012,07,27,10,32,14.70
2012,07,27,10,33,14.70
2012,07,27,10,34,14.80
2012,07,27,10,35,14.80
2012,07,27,10,36,14.80
2012,07,27,10,37,14.80
2012,07,27,10,38,14.80
2012,07,27,10,39,14.80
2012,07,27,10,40,14.80
2012,07,27,10,41,14.80
2012,07,27,10,42,14.80
2012,07,27,10,43,14.80
2012,07,27,10,44,14.70
2012,07,27,10,45,14.70
2012,07,27,10,46,14.80
2012,07,27,10,47,14.80
2012,07,27,10,48,14.90
2012,07,27,10,49,14.90
2012,07,27,10,50,15.00
2012,07,27,10,51,15.10
2012,07,27,10,52,15.20
2012,07,27,10,53,15.20
2012,07,27,10,54,15.30
2012,07,27,10,55,15.40
2012,07,27,10,56,15.40
2012,07,27,10,57,15.40
2012,07,27,10,58,15.40
2012,07,27,10,59,15.40
2012,07,27,11,00,15.40
2012,07,27,11,01,15.30
2012,07,27,11,02,15.30
2012,07,27,11,03,15.30
2012,07,27,11,04,15.30
2012,07,27,11,05,15.20
2012,07,27,11,06,15.20
2012,07,27,11,07,15.20
2012,07,27,11,08,15.20
2012,07,27,11,09,15.30
2012,07,27,11,10,15.30
2012,07,27,11,11,15.40
2012,07,27,11,12,15.40
2012,07,27,11,13,15.40
2012,07,27,11,14,15.40
2012,07,27,11,15,15.50
2012,07,27,11,16,15.50
2012,07,27,11,17,15.50
2012,07,27,11,18,15.60
2012,07,27,11,19,15.60
2012,07,27,11,20,15.60
2012,07,27,11,21,15.70
2012,07,27,11,22,15.70
2012,07,27,11,23,15.70
2012,07,27,11,24,15.80
2012,07,27,11,25,15.80
2012,07,27,11,26,15.80
2012,07,27,11,27,15.80
2012,07,27,11,28,15.80
2012,07,27,11,29,15.80
2012,07,27,11,30,15.80
2012,07,27,11,31,15.80
2012,07,27,11,32,15.90
2012,07,27,11,33,15.90
2012,07,27,11,34,15.90
2012,07,27,11,35,15.90
2012,07,27,11,36,15.90
2012,07,27,11,37,15.90
2012,07,27,11,38,15.90
2012,07,27,11,39,15.90
2012,07,27,11,40,15.90
2012,07,27,11,41,15.90
2012,07,27,11,42,15.80
2012,07,27,11,43,15.90
2012,07,27,11,44,15.90
2012,07,27,11,45,15.90
2012,07,27,11,46,15.90
2012,07,27,11,47,15.90
2012,07,27,11,48,15.90
2012,07,27,11,49,15.90
2012,07,27,11,50,15.90
2012,07,27,11,51,16.00
2012,07,27,11,52,16.00
2012,07,27,11,53,16.00
2012,07,27,11,54,16.00
2012,07,27,11,55,15.90
2012,07,27,11,56,15.90
2012,07,27,11,57,15.90
2012,07,27,11,58,15.90
2012,07,27,11,59,16.00
2012,07,27,12,00,16.10
2012,07,27,12,01,16.20
2012,07,27,12,02,16.20
2012,07,27,12,03,16.20
2012,07,27,12,04,16.20
2012,07,27,12,05,16.20
2012,07,27,12,06,16.30
2012,07,27,12,07,16.30
2012,07,27,12,08,16.30
2012,07,27,12,09,16.30
2012,07,27,12,10,16.30
2012,07,27,12,11,16.30
2012,07,27,12,12,16.40
2012,07,27,12,13,16.40
2012,07,27,12,14,16.50
2012,07,27,12,15,16.50
2012,07,27,12,16,16.50
2012,07,27,12,17,16.50
2012,07,27,12,18,16.50
2012,07,27,12,19,16.50
2012,07,27,12,20,16.40
2012,07,27,12,21,16.30
2012,07,27,12,22,16.30
2012,07,27,12,23,16.30
2012,07,27,12,24,16.30
2012,07,27,12,25,16.30
2012,07,27,12,26,16.30
2012,07,27,12,27,16.30
2012,07,27,12,28,16.30
2012,07,27,12,29,16.30
2012,07,27,12,30,16.30
2012,07,27,12,31,16.30
2012,07,27,12,32,16.30
2012,07,27,12,33,16.30
2012,07,27,12,34,16.20
2012,07,27,12,35,16.20
2012,07,27,12,36,16.20
2012,07,27,12,37,16.20
2012,07,27,12,38,16.20
2012,07,27,12,39,16.30
2012,07,27,12,40,16.40
2012,07,27,12,41,16.50
2012,07,27,12,42,16.50
2012,07,27,12,43,16.50
2012,07,27,12,44,16.50
2012,07,27,12,45,16.40
2012,07,27,12,46,16.30
2012,07,27,12,47,16.30
2012,07,27,12,48,16.10
2012,07,27,12,49,16.00
2012,07,27,12,50,16.00
2012,07,27,12,51,15.90
2012,07,27,12,52,15.90
2012,07,27,12,53,15.90
2012,07,27,12,54,15.90
2012,07,27,12,55,15.90
2012,07,27,12,56,16.00
2012,07,27,12,57,16.10
2012,07,27,12,58,16.30
2012,07,27,12,59,16.40
2012,07,27,13,00,16.50
2012,07,27,13,01,16.60
2012,07,27,13,02,16.70
2012,07,27,13,03,16.70
2012,07,27,13,04,16.70
2012,07,27,13,05,16.80
2012,07,27,13,06,16.80
2012,07,27,13,07,16.90
2012,07,27,13,08,16.90
2012,07,27,13,09,17.00
2012,07,27,13,10,17.00
2012,07,27,13,11,17.00
2012,07,27,13,12,17.10
2012,07,27,13,13,17.10
2012,07,27,13,14,17.10
2012,07,27,13,15,17.10
2012,07,27,13,16,17.10
2012,07,27,13,17,17.00
2012,07,27,13,18,16.80
2012,07,27,13,19,16.60
2012,07,27,13,20,16.50
2012,07,27,13,21,16.40
2012,07,27,13,22,16.30
2012,07,27,13,23,16.20
2012,07,27,13,24,16.10
2012,07,27,13,25,16.00
2012,07,27,13,26,15.90
2012,07,27,13,27,15.70
2012,07,27,13,28,15.60
2012,07,27,13,29,15.50
2012,07,27,13,30,15.40
2012,07,27,13,31,15.50
2012,07,27,13,32,15.50
2012,07,27,13,33,15.60
2012,07,27,13,34,15.70
2012,07,27,13,35,15.80
2012,07,27,13,36,15.90
2012,07,27,13,37,16.00
2012,07,27,13,38,16.10
2012,07,27,13,39,16.20
2012,07,27,13,40,16.20
2012,07,27,13,41,16.30
2012,07,27,13,42,16.40
2012,07,27,13,43,16.50
2012,07,27,13,44,16.60
2012,07,27,13,45,16.80
2012,07,27,13,46,16.90
2012,07,27,13,47,17.00
2012,07,27,13,48,17.10
2012,07,27,13,49,17.20
2012,07,27,13,50,17.30
2012,07,27,13,51,17.30
2012,07,27,13,52,17.30
2012,07,27,13,53,17.40
2012,07,27,13,54,17.50
2012,07,27,13,55,17.50
2012,07,27,13,56,17.50
2012,07,27,13,57,17.60
2012,07,27,13,58,17.60
2012,07,27,13,59,17.60
2012,07,27,14,00,17.70
2012,07,27,14,01,17.70
2012,07,27,14,02,17.70
2012,07,27,14,03,17.60
2012,07,27,14,04,17.60
2012,07,27,14,05,17.60
2012,07,27,14,06,17.60
2012,07,27,14,07,17.70
2012,07,27,14,08,17.70
2012,07,27,14,09,17.60
2012,07,27,14,10,17.60
2012,07,27,14,11,17.70
2012,07,27,14,12,17.70
2012,07,27,14,13,17.70
2012,07,27,14,14,17.80
2012,07,27,14,15,17.80
2012,07,27,14,16,17.90
2012,07,27,14,17,18.00
2012,07,27,14,18,18.00
2012,07,27,14,19,18.00
2012,07,27,14,20,18.10
2012,07,27,14,21,18.10
2012,07,27,14,22,18.10
2012,07,27,14,23,18.10
2012,07,27,14,24,18.10
2012,07,27,14,25,18.10
2012,07,27,14,26,18.10
2012,07,27,14,27,18.00
2012,07,27,14,28,18.00
2012,07,27,14,29,18.00
2012,07,27,14,30,18.00
2012,07,27,14,31,18.10
2012,07,27,14,32,18.10
2012,07,27,14,33,18.10
2012,07,27,14,34,18.10
2012,07,27,14,35,18.10
2012,07,27,14,36,18.10
2012,07,27,14,37,18.20
2012,07,27,14,38,18.30
2012,07,27,14,39,18.30
2012,07,27,14,40,18.30
2012,07,27,14,41,18.30
2012,07,27,14,42,18.20
2012,07,27,14,43,18.20
2012,07,27,14,44,18.20
2012,07,27,14,45,18.30
2012,07,27,14,46,18.30
2012,07,27,14,47,18.40
2012,07,27,14,48,18.30
2012,07,27,14,49,18.30
2012,07,27,14,50,18.30
2012,07,27,14,51,18.40
2012,07,27,14,52,18.50
2012,07,27,14,53,18.60
2012,07,27,14,54,18.70
2012,07,27,14,55,18.70
2012,07,27,14,56,18.60
2012,07,27,14,57,18.60
2012,07,27,14,58,18.60
2012,07,27,14,59,18.50
2012,07,27,15,00,18.40
2012,07,27,15,01,18.40
2012,07,27,15,02,18.30
2012,07,27,15,03,18.30
2012,07,27,15,04,18.40
2012,07,27,15,05,18.50
2012,07,27,15,06,18.70
2012,07,27,15,07,18.80
2012,07,27,15,08,18.80
2012,07,27,15,09,18.80
2012,07,27,15,10,18.80
2012,07,27,15,11,18.70
2012,07,27,15,12,18.60
2012,07,27,15,13,18.60
2012,07,27,15,14,18.60
2012,07,27,15,15,18.60
2012,07,27,15,16,18.60
2012,07,27,15,17,18.60
2012,07,27,15,18,18.60
2012,07,27,15,19,18.70
2012,07,27,15,20,18.70
2012,07,27,15,21,18.70
2012,07,27,15,22,18.70
2012,07,27,15,23,18.60
2012,07,27,15,24,18.60
2012,07,27,15,25,18.60
2012,07,27,15,26,18.70
2012,07,27,15,27,18.70
2012,07,27,15,28,18.70
2012,07,27,15,29,18.70
2012,07,27,15,30,18.70
2012,07,27,15,31,18.60
2012,07,27,15,32,18.50
2012,07,27,15,33,18.40
2012,07,27,15,34,18.40
2012,07,27,15,35,18.40
2012,07,27,15,36,18.30
2012,07,27,15,37,18.30
2012,07,27,15,38,18.30
2012,07,27,15,39,18.40
2012,07,27,15,40,18.40
2012,07,27,15,41,18.40
2012,07,27,15,42,18.40
2012,07,27,15,43,18.40
2012,07,27,15,44,18.40
2012,07,27,15,45,18.40
2012,07,27,15,46,18.50
2012,07,27,15,47,18.50
2012,07,27,15,48,18.60
2012,07,27,15,49,18.60
2012,07,27,15,50,18.70
2012,07,27,15,51,18.70
2012,07,27,15,52,18.80
2012,07,27,15,53,18.80
2012,07,27,15,54,18.70
2012,07,27,15,55,18.70
2012,07,27,15,56,18.70
2012,07,27,15,57,18.70
2012,07,27,15,58,18.70
2012,07,27,15,59,18.70
2012,07,27,16,00,18.70
2012,07,27,16,01,18.70
2012,07,27,16,02,18.80
2012,07,27,16,03,18.80
2012,07,27,16,04,18.90
2012,07,27,16,05,18.90
2012,07,27,16,06,18.90
2012,07,27,16,07,18.80
2012,07,27,16,08,18.70
2012,07,27,16,09,18.70
2012,07,27,16,10,18.60
2012,07,27,16,11,18.70
2012,07,27,16,12,18.70
2012,07,27,16,13,18.70
2012,07,27,16,14,18.80
2012,07,27,16,15,18.80
2012,07,27,16,16,18.70
2012,07,27,16,17,18.60
2012,07,27,16,18,18.50
2012,07,27,16,19,18.50
2012,07,27,16,20,18.40
2012,07,27,16,21,18.30
2012,07,27,16,22,18.20
2012,07,27,16,23,18.20
2012,07,27,16,24,18.20
2012,07,27,16,25,18.20
2012,07,27,16,26,18.30
2012,07,27,16,27,18.30
2012,07,27,16,28,18.30
2012,07,27,16,29,18.30
2012,07,27,16,30,18.30
2012,07,27,16,31,18.30
2012,07,27,16,32,18.40
2012,07,27,16,33,18.50
2012,07,27,16,34,18.50
2012,07,27,16,35,18.60
2012,07,27,16,36,18.70
2012,07,27,16,37,18.80
2012,07,27,16,38,18.90
2012,07,27,16,39,18.90
2012,07,27,16,40,19.00
2012,07,27,16,41,19.00
2012,07,27,16,42,19.00
2012,07,27,16,43,19.10
2012,07,27,16,44,19.10
2012,07,27,16,45,19.00
2012,07,27,16,46,18.90
2012,07,27,16,47,18.90
2012,07,27,16,48,18.80
2012,07,27,16,49,18.70
2012,07,27,16,50,18.70
2012,07,27,16,51,18.60
2012,07,27,16,52,18.60
2012,07,27,16,53,18.60
2012,07,27,16,54,18.50
2012,07,27,16,55,18.50
2012,07,27,16,56,18.50
2012,07,27,16,57,18.50
2012,07,27,16,58,18.50
2012,07,27,16,59,18.50
2012,07,27,17,00,18.40
2012,07,27,17,01,18.30
2012,07,27,17,02,18.30
2012,07,27,17,03,18.20
2012,07,27,17,04,18.10
2012,07,27,17,05,18.10
2012,07,27,17,06,18.00
2012,07,27,17,07,18.00
2012,07,27,17,08,17.90
2012,07,27,17,09,17.90
2012,07,27,17,10,17.90
2012,07,27,17,11,18.00
2012,07,27,17,12,18.00
2012,07,27,17,13,18.10
2012,07,27,17,14,18.10
2012,07,27,17,15,18.10
2012,07,27,17,16,18.20
2012,07,27,17,17,18.30
2012,07,27,17,18,18.30
2012,07,27,17,19,18.20